Powrót do katalogu

NIMIQ 6

AktywnyŁącznośćGEO
NORAD 38342·PAYLOAD·🇨🇦 Canada

Wystrzelony May 17, 2012 z Baikonur Cosmodrome

Loading…

TLE

ŚwieżeSource: CelesTrak SupGP

Epoka: Sep 14, 2026, 04:59 UTC

1 38342C 12026A   26257.20833333 -.00003479  00000+0  00000+0 0  2577
2 38342   0.0308 271.6920 0002859 258.7313 166.6706  1.00272227    19

Śledź NIMIQ 6 w czasie rzeczywistym z AllMySat

Download on the App Store